Ask Your Question

fivef's profile - karma

fivef's karma change log

10 0 How to build just one package using catkin_make? ( 2019-10-08 01:49:42 -0500 )

10 0 How to build just one package using catkin_make? ( 2019-09-26 15:35:16 -0500 )

10 0 How to build just one package using catkin_make? ( 2019-09-24 11:50:24 -0500 )

10 0 Transform a pose to another frame with tf2 in Python ( 2019-08-27 15:51:23 -0500 )

10 0 Transform a pose to another frame with tf2 in Python ( 2019-08-27 15:51:22 -0500 )

10 0 how to convert xacro file to urdf file? ( 2019-08-27 07:51:07 -0500 )

10 0 How to build just one package using catkin_make? ( 2019-08-26 09:12:15 -0500 )

10 0 How to build just one package using catkin_make? ( 2019-08-13 02:10:27 -0500 )

10 0 how to convert xacro file to urdf file? ( 2019-06-28 10:35:36 -0500 )

10 0 end-effector pose constrained planning ( 2019-05-30 03:01:04 -0500 )

10 0 How to build just one package using catkin_make? ( 2019-05-10 07:12:22 -0500 )

10 0 how to convert xacro file to urdf file? ( 2019-05-09 02:36:14 -0500 )

10 0 Best 3D object recognition package ( 2019-04-23 10:41:43 -0500 )

0 -10 Best 3D object recognition package ( 2019-04-13 14:14:56 -0500 )

10 0 Is there a C++ API for a dynamic reconfigure client? ( 2019-03-29 00:31:28 -0500 )

10 0 Dont see source code in Eclipse Debug ( 2019-03-21 10:51:29 -0500 )

10 0 How to speed up moveit execution velocity? ( 2019-03-19 06:07:08 -0500 )

10 0 Best 3D object recognition package ( 2019-03-15 15:52:04 -0500 )

10 0 Is there a C++ API for a dynamic reconfigure client? ( 2019-03-09 21:48:43 -0500 )

10 0 how to convert xacro file to urdf file? ( 2019-03-05 05:57:29 -0500 )

10 0 How to build just one package using catkin_make? ( 2019-03-04 05:48:57 -0500 )

15 0 What is the recommended database management system and wrapper for python? ( 2019-03-01 16:31:22 -0500 )

10 0 end-effector pose constrained planning ( 2019-02-20 13:13:08 -0500 )

10 0 Is there a C++ API for a dynamic reconfigure client? ( 2019-02-07 09:46:17 -0500 )

10 0 How to build just one package using catkin_make? ( 2019-02-02 20:35:40 -0500 )

10 0 How to build just one package using catkin_make? ( 2019-01-31 06:17:03 -0500 )

10 0 How to solve 'undefined reference to `ros::init' on Groovy? ( 2019-01-24 04:38:40 -0500 )

10 0 Is there a C++ API for a dynamic reconfigure client? ( 2019-01-18 02:59:41 -0500 )

10 0 Transform a pose to another frame with tf2 in Python ( 2019-01-03 12:55:27 -0500 )

10 0 Is there a C++ API for a dynamic reconfigure client? ( 2018-12-07 09:06:48 -0500 )

10 0 MoveIt! tutorial: Sensor integration ( 2018-11-07 15:35:37 -0500 )

0 -10 MoveIt! tutorial: Sensor integration ( 2018-11-07 15:35:37 -0500 )

10 0 MoveIt! tutorial: Sensor integration ( 2018-11-07 15:35:37 -0500 )

0 -10 MoveIt! tutorial: Sensor integration ( 2018-11-07 15:35:28 -0500 )

10 0 MoveIt! tutorial: Sensor integration ( 2018-11-07 15:35:28 -0500 )

10 0 Is there a C++ API for a dynamic reconfigure client? ( 2018-11-02 16:27:36 -0500 )

10 0 Transform a pose to another frame with tf2 in Python ( 2018-10-09 10:00:44 -0500 )

10 0 What is the recommended database management system and wrapper for python? ( 2018-08-24 13:27:13 -0500 )

10 0 how to convert xacro file to urdf file? ( 2018-08-22 12:26:02 -0500 )

10 0 Best 3D object recognition package ( 2018-08-16 15:23:52 -0500 )

0 -10 Transform a pose to another frame with tf2 in Python ( 2018-08-10 07:40:13 -0500 )

10 0 Transform a pose to another frame with tf2 in Python ( 2018-08-10 07:39:09 -0500 )

10 0 Is there a C++ API for a dynamic reconfigure client? ( 2018-08-06 16:22:14 -0500 )

10 0 MoveIt! tutorial: Sensor integration ( 2018-07-18 09:26:55 -0500 )

10 0 how to convert xacro file to urdf file? ( 2018-07-05 22:05:11 -0500 )

10 0 Transform a pose to another frame with tf2 in Python ( 2018-06-23 13:19:57 -0500 )

10 0 How to solve 'undefined reference to `ros::init' on Groovy? ( 2018-06-10 22:30:27 -0500 )

10 0 Is there a C++ API for a dynamic reconfigure client? ( 2018-05-16 09:48:57 -0500 )

10 0 How to build just one package using catkin_make? ( 2018-03-15 14:04:01 -0500 )

0 -10 How to build just one package using catkin_make? ( 2018-02-22 10:08:54 -0500 )

10 0 How to build just one package using catkin_make? ( 2018-02-22 10:07:13 -0500 )

0 -10 How to build just one package using catkin_make? ( 2018-02-22 10:07:12 -0500 )

10 0 How to build just one package using catkin_make? ( 2018-02-14 06:29:52 -0500 )

10 0 how to convert xacro file to urdf file? ( 2017-11-16 14:15:39 -0500 )

10 0 How to build just one package using catkin_make? ( 2017-10-30 09:04:23 -0500 )

0 -10 How to build just one package using catkin_make? ( 2017-10-30 09:04:21 -0500 )

10 0 Should catkin_make work for package targets? ( 2017-10-17 17:56:40 -0500 )

10 0 Transform a pose to another frame with tf2 in Python ( 2017-09-06 18:22:35 -0500 )

10 0 How to build just one package using catkin_make? ( 2017-09-03 11:48:00 -0500 )

10 0 How to build just one package using catkin_make? ( 2017-08-31 08:08:20 -0500 )

10 0 Duration is out of dual 32-bit range when enable_statistics = true ( 2017-08-07 09:23:34 -0500 )

10 0 Is there a C++ API for a dynamic reconfigure client? ( 2017-05-31 03:06:05 -0500 )

10 0 How to build just one package using catkin_make? ( 2017-05-08 02:49:29 -0500 )

0 -10 How to build just one package using catkin_make? ( 2017-05-08 02:49:26 -0500 )

10 0 Transform a pose to another frame with tf2 in Python ( 2017-04-29 08:42:40 -0500 )

0 10 How to build just one package using catkin_make? ( 2017-04-27 12:09:34 -0500 )

15 0 No observations available. ( 2017-04-20 13:41:40 -0500 )

10 0 How to build just one package using catkin_make? ( 2017-04-12 01:34:23 -0500 )

10 0 how to convert xacro file to urdf file? ( 2017-03-20 23:26:30 -0500 )

10 0 How to solve 'undefined reference to `ros::init' on Groovy? ( 2017-03-10 07:58:55 -0500 )

15 0 How can statistics for all active ROS Topics be obtained? ( 2017-02-08 13:14:20 -0500 )

10 0 Transform a pose to another frame with tf2 in Python ( 2017-02-08 09:22:35 -0500 )

10 0 How to solve 'undefined reference to `ros::init' on Groovy? ( 2017-01-23 01:57:53 -0500 )

10 0 How to build just one package using catkin_make? ( 2017-01-22 14:02:57 -0500 )

10 0 How to build just one package using catkin_make? ( 2017-01-10 06:23:37 -0500 )

0 -10 How to build just one package using catkin_make? ( 2017-01-10 06:23:35 -0500 )

10 0 How to build just one package using catkin_make? ( 2017-01-10 06:23:33 -0500 )

10 0 Is there a C++ API for a dynamic reconfigure client? ( 2016-12-12 07:40:10 -0500 )

2 0 Asus Xtion live pro on USB 3.0 - ROS-kinetic - Ubuntu 16.04 ( 2016-12-09 06:48:46 -0500 )

10 0 How to build just one package using catkin_make? ( 2016-11-05 10:14:38 -0500 )

10 0 How to build just one package using catkin_make? ( 2016-09-30 03:07:00 -0500 )

0 -10 How to build just one package using catkin_make? ( 2016-09-30 03:06:58 -0500 )

10 0 Transform a pose to another frame with tf2 in Python ( 2016-08-24 16:59:58 -0500 )

10 0 Transform a pose to another frame with tf2 in Python ( 2016-08-24 16:59:44 -0500 )

10 0 How to build just one package using catkin_make? ( 2016-08-21 00:35:12 -0500 )

10 0 How to build just one package using catkin_make? ( 2016-08-16 16:12:49 -0500 )

10 0 How to build just one package using catkin_make? ( 2016-08-16 06:55:24 -0500 )

10 0 Is there a C++ API for a dynamic reconfigure client? ( 2016-08-13 14:35:41 -0500 )

10 0 Transform a pose to another frame with tf2 in Python ( 2016-08-11 11:48:35 -0500 )

15 0 rosmake -> builds something with catkin!? ( 2016-08-08 00:40:04 -0500 )

15 0 Object recognition capture unable to find Pose ( 2016-08-08 00:23:14 -0500 )

10 0 Is there a C++ API for a dynamic reconfigure client? ( 2016-07-28 10:21:36 -0500 )

10 0 Is there a C++ API for a dynamic reconfigure client? ( 2016-07-13 03:43:20 -0500 )

10 0 Is there a C++ API for a dynamic reconfigure client? ( 2016-07-12 12:47:29 -0500 )

10 0 How to build just one package using catkin_make? ( 2016-06-15 11:48:33 -0500 )

15 0 Is there a C++ API for a dynamic reconfigure client? ( 2016-06-03 01:33:30 -0500 )

10 0 Is there a C++ API for a dynamic reconfigure client? ( 2016-06-03 01:33:25 -0500 )

10 0 How to build just one package using catkin_make? ( 2016-05-25 09:06:37 -0500 )

15 0 Dont see source code in Eclipse Debug ( 2016-05-09 21:02:20 -0500 )

15 0 end-effector pose constrained planning ( 2016-05-08 15:15:55 -0500 )